Home   Weather   Panama   Past weeks
Flag for Panama

Past Weather in Panama, Panama — Yesterday and Last 2 Weeks

Now
84 °F

Partly sunny.


Feels Like: 92 °F
Forecast: N/A
Wind: 5 mph from Northwest

Location: Marcos A. Gelabert

Current Time: Oct 17, 2019 at 3:54:17 pm

Latest Report: Oct 17, 2019 at 3:00 pm


Visibility: N/A

Pressure: 29.83 "Hg

Humidity: 74%

Dew Point: 75 °F

Location of PanamaLocation

Past Weather in Panama — Graph

°F

Panama Temperature Yesterday

Maximum temperature yesterday: 86 °F (at 4:00 pm)
Minimum temperature yesterday: 77 °F (at 2:00 am)
Average temperature yesterday: 80 °F

High & Low Weather Summary for the Past Weeks

 TemperatureHumidityPressure
High88 °F (Oct 4, 12:00 pm)100% (Oct 9, 7:00 am)29.95 "Hg (Oct 9, 7:00 am)
Low75 °F (Oct 6, 6:00 am)66% (Oct 15, 11:00 am)29.71 "Hg (Oct 8, 3:00 pm)
Average80 °F85%29.83 "Hg
* Reported Oct 2 2:00 pm — Oct 17 2:00 pm, Panama. Weather by CustomWeather, © 2019

Note: Actual official high and low records may vary slightly from our data, if they occured in-between our weather recording intervals... More about our weather records

Advertising

Panama Weather History for the Previous 24 Hours

Scroll right to see more
 ConditionsComfort  
Time TempWeatherWind HumidityBarometerVisibility
2:00 pm
Thu, Oct 17
84 °FPartly sunny.1 mph74%29.83 "HgN/A
1:00 pm82 °FBroken clouds.2 mph79%29.86 "HgN/A
12:00 pm79 °FLight rain. Broken clouds.3 mph89%29.92 "Hg6 mi
11:00 am77 °FLight rain. Broken clouds.3 mph89%29.92 "Hg6 mi
9:19 am75 °FThunderstorms. Broken clouds.2 mph94%29.95 "Hg5 mi
9:00 am75 °FThunderstorms. Broken clouds.2 mph89%29.92 "Hg4 mi
8:21 am81 °FHeavy rain. Broken clouds.6 mph89%29.92 "Hg2 mi
8:00 am79 °FScattered showers. Broken clouds.8 mph94%29.89 "Hg6 mi
7:00 am77 °FScattered clouds.3 mph94%29.89 "Hg6 mi
6:00 am77 °FPassing clouds.3 mph94%29.86 "Hg6 mi
5:00 am77 °FOvercast.3 mph94%29.83 "HgN/A
4:00 am77 °FMostly cloudy.No wind94%29.83 "HgN/A
3:00 am77 °FPartly cloudy.1 mph94%29.83 "HgN/A
2:00 am79 °FMostly cloudy.5 mph89%29.86 "HgN/A
1:00 am77 °FMostly cloudy.2 mph94%29.89 "HgN/A
12:00 am79 °FPassing clouds.2 mph89%29.89 "HgN/A
11:00 pm
Wed, Oct 16
79 °FPassing clouds.2 mph89%29.92 "HgN/A
10:00 pm79 °FPassing clouds.No wind94%29.89 "HgN/A
9:00 pm79 °FPassing clouds.3 mph94%29.89 "HgN/A
8:00 pm81 °FPassing clouds.3 mph84%29.86 "HgN/A
7:00 pm81 °FPassing clouds.2 mph84%29.83 "HgN/A
6:00 pm82 °FPassing clouds.3 mph74%29.80 "HgN/A
5:00 pm84 °FPassing clouds.5 mph74%29.83 "HgN/A
4:00 pm86 °FPassing clouds.6 mph66%29.83 "HgN/A
3:00 pm84 °FScattered clouds.7 mph74%29.83 "HgN/A
Weather by CustomWeather, © 2019

See weather overview